Ciudad Victoria, Mexico

12:59 AM CST on March 27, 2017 (GMT -0600)
Ciudad Victoria

Weather History for MMCV - October, 2012

Change the Weather History Date:

Friday, October 5, 2012

  Actual Average Record
Temperature  
Mean Temperature 76 °F -  
Max Temperature 96 °F 83 °F 98 °F (2016)
Min Temperature 56 °F 64 °F 56 °F (2012)
Cooling Degree Days 11    
Growing Degree Days 26 (Base 50)    
Moisture  
Dew Point 55 °F    
Average Humidity 52    
Maximum Humidity 100    
Minimum Humidity 15    
Precipitation  
Precipitation 0.00 in - - ()
Sea Level Pressure  
Sea Level Pressure 30.04 in    
Wind  
Wind Speed 3 mph ()    
Max Wind Speed 10 mph    
Max Gust Speed -    
Visibility 7.9 miles    
Events      
Averages and records for this station are not official NWS values.
T = Trace of Precipitation, MM = Missing Value Source: Averaged Metar Reports

Daily Weather History Graph

Daily Weather History Graph

Search for Another Location

Airport or City:

Trip Planner

Search our weather history database for the weather conditions in past years. The results will help you decide how hot, cold, wet, or windy it might be!

Date:

Astronomy

Oct. 05, 2012 Rise Set
Actual Time 7:29 AM CDT 7:18 PM CDT
Civil Twilight 7:06 AM CDT 7:41 PM CDT
Nautical Twilight 6:40 AM CDT 8:07 PM CDT
Astronomical Twilight 6:14 AM CDT 8:33 PM CDT
Moon 11:13 PM CDT (10/5) 12:08 PM CDT (10/5)
Length of Visible Light 12h 34m
Length of Day
11h 49m
Waning Gibbous, 74% of the Moon is Illuminated
Oct 5
Waning Gibbous
Oct 8
Last Quarter
Oct 15
New
Oct 21
First Quarter
Oct 29
Full

Hourly Weather History & Observations

Time (CDT) Temp. Heat Index Dew Point Humidity Pressure Visibility Wind Dir Wind Speed Gust Speed Precip Events Conditions
12:50 AM 63 °F - 55 °F 67% 30.09 in 4 mi Calm Calm - -  
3:50 AM 58 °F - 55 °F 88% 30.09 in 4 mi Calm Calm - -  
6:04 AM 55.4 °F - 53.6 °F 94% 30.08 in 6.0 mi WSW 4.6 mph - N/A   Clear
6:43 AM 57.2 °F - 57.2 °F 100% 30.10 in 6.0 mi ESE 2.3 mph - N/A   Clear
6:50 AM 59 °F - 56 °F 88% 30.14 in 4 mi Calm Calm - -  
7:41 AM 57.2 °F - 55.4 °F 94% 30.10 in 8.0 mi Calm Calm - N/A   Clear
8:43 AM 60.8 °F - 60.8 °F 100% 30.11 in 8.0 mi Calm Calm - N/A   Clear
9:46 AM 73.4 °F - 60.8 °F 65% 30.12 in 10.0 mi SSE 3.5 mph - N/A   Clear
9:50 AM 73 °F - 64 °F 67% 30.17 in 6 mi Calm Calm - -  
10:44 AM 78.8 °F - 62.6 °F 57% 30.11 in 10.0 mi SSE 6.9 mph - N/A   Clear
11:40 AM 82.4 °F 82.5 °F 59.0 °F 45% 30.09 in 10.0 mi SE 6.9 mph - N/A   Clear
12:47 PM 86.0 °F 84.5 °F 55.4 °F 35% 30.07 in 10.0 mi East 8.1 mph - N/A   Clear
1:44 PM 91.4 °F 89.1 °F 53.6 °F 28% 30.03 in 10.0 mi ENE 5.8 mph - N/A   Clear
2:41 PM 89.6 °F - 51.8 °F 27% 30.00 in 10.0 mi Calm Calm - N/A   Clear
3:45 PM 93.2 °F - 48.2 °F 21% 29.98 in 10.0 mi East 10.4 mph - N/A   Clear
3:50 PM 95 °F - 63 °F 25% 29.99 in 6 mi SE 2.2 mph - -  
4:41 PM 93.2 °F - 39.2 °F 15% 29.95 in 10.0 mi East 8.1 mph - N/A   Clear
5:42 PM 93.2 °F - 39.2 °F 15% 29.93 in 10.0 mi ESE 3.5 mph - N/A   Clear
6:41 PM 91.4 °F - 42.8 °F 18% 29.95 in 10.0 mi East 4.6 mph - N/A   Clear
6:45 PM 90 °F - 55 °F 21% 29.96 in 6 mi North 2.2 mph - -  
7:41 PM 84.2 °F 82.8 °F 53.6 °F 35% 29.96 in 10.0 mi South 2.3 mph - N/A   Clear
8:48 PM 78.8 °F - 59.0 °F 51% 29.98 in 10.0 mi East 8.1 mph - N/A   Clear
9:40 PM 78.8 °F - 60.8 °F 54% 29.99 in 8.0 mi ESE 6.9 mph - N/A   Clear
9:45 PM 78 °F - 58 °F 39% 29.99 in 4 mi SSW 2.2 mph - -